Regional Weather Roundup
Issued by NWS

Home | Current Version | Previous Version | Text Only | Print | Product List | Glossary Off
Versions: 1 2 3 4 5 6 7 8 9 10 11 12 13 14 15 16 17 18 19 20 21 22 23 24 25 26 27 28 29 30 31 32 33 34 35 36 37 38 39 40 41 42 43 44 45 46 47 48 49 50

000
ASUS43 KDMX 171106
RWRIA

WEATHER ROUNDUP FOR IOWA
NATIONAL WEATHER SERVICE DES MOINES IA
500 AM CST SAT FEB 17 2018

NOTE: "FAIR" INDICATES FEW OR NO CLOUDS BELOW 12,000 FEET WITH NO
SIGNIFICANT WEATHER AND/OR OBSTRUCTIONS TO VISIBILITY.

* - THESE STATIONS ARE NOT NWS STATIONS...THUS NOT UNDER NWS
QUALITY CONTROL.  THEY ALSO DO NOT REPORT WEATHER SUCH
AS PRECIPITATION OR FOG.

IAZ001>003-012>014-020>022-031>034-043>046-171200-
   NORTHWEST IOWA

CITY           SKY/WX    TMP DP  RH WIND       PRES   REMARKS
CARROLL *      CLOUDY    28  16  59 S12       29.92F WCI  18
CHEROKEE *     CLOUDY    25  16  67 S5        29.89F WCI  19
DENISON *      CLOUDY    28  16  59 S14G22    29.92S WCI  17
LE MARS *      CLOUDY    25  18  74 S8        29.88F WCI  16
ORANGE CITY *  CLOUDY    25  19  80 S7        29.86F WCI  17
SHELDON *      CLOUDY    25  18  74 S9        29.85F WCI  15
SIOUX CITY     CLOUDY    27  18  69 CALM      29.90S
SPENCER        CLOUDY    24  15  68 S9        29.89F WCI  14
STORM LAKE *   CLOUDY    25  18  74 S9        29.88F WCI  15
$$

IAZ055>058-069>071-079>083-090>094-171200-
   SOUTHWEST IOWA

CITY           SKY/WX    TMP DP  RH WIND       PRES   REMARKS
ATLANTIC *     CLOUDY    28  14  54 S14       29.94F WCI  17
AUDUBON *      CLOUDY    28  14  54 S10       29.93F WCI  19
CLARINDA *     CLOUDY    30  16  55 S7        29.99F WCI  23
COUNCIL BLFS * CLOUDY    32  16  51 S13       29.91F WCI  22
CRESTON *      CLOUDY    27  10  50 S15       29.97F WCI  15
HARLAN  *      CLOUDY    28  16  59 S12       29.95F WCI  18
LAMONI         CLOUDY    27   9  46 S8        30.00F WCI  19
RED OAK *      CLOUDY    30  14  51 S10       29.94F WCI  21
SHENANDOAH *   CLOUDY    30  16  55 S12       29.96F WCI  21
$$

IAZ047>049-059>061-072>074-084-171200-
   CENTRAL IOWA

CITY           SKY/WX    TMP DP  RH WIND       PRES   REMARKS
AMES           CLOUDY    21  14  74 SE6       29.99F WCI  13
ANKENY *       CLOUDY    25  12  58 S6        30.02S WCI  18
BOONE *        CLOUDY    25  14  63 S9        29.96S WCI  15
CHARITON *     CLOUDY    27  12  54 S10       30.02S WCI  17
DES MOINES     CLOUDY    26  11  52 S9        30.01S WCI  17
GRINNELL*      CLOUDY    21  13  71 S12       30.03S WCI   9
KNOXVILLE *    CLOUDY    25  10  54 S7        30.03R WCI  17
MARSHALLTOWN   CLOUDY    23  11  60 S8        30.00F WCI  14
NEWTON *       CLOUDY    21  12  68 S8        30.03R WCI  12
PELLA *        CLOUDY    23  13  66 S8        30.06R WCI  14
PERRY *        CLOUDY    24  19  80 SE10      29.96F WCI  13
$$

IAZ004>006-015-016-023>025-035-036-171200-
   NORTH CENTRAL IOWA

CITY           SKY/WX    TMP DP  RH WIND       PRES   REMARKS
ALGONA *       CLOUDY    23 N/A N/A S12       29.92S WCI  12
CLARION *      CLOUDY    21  19  93 S16       29.93F WCI   7
ESTHERVILLE    CLOUDY    21  14  74 S10       29.89S WCI  10
FORT DODGE *   CLOUDY    24  15  68 S15       29.92F WCI  11
MASON CITY     CLOUDY    21  11  65 S10       29.95F WCI  10
FOREST CITY *  CLOUDY    23  16  74 S10       29.93F WCI  12
WEBSTER CITY * CLOUDY    23  14  68 S12       29.93F WCI  12
IOWA FALLS *   CLOUDY    24  14  64 S16       29.97F WCI  11
$$

IAZ007>011-017>019-026>030-037>042-050>054-066-171200-
   NORTHEAST IOWA

CITY           SKY/WX    TMP DP  RH WIND       PRES   REMARKS
CEDAR RAPIDS   CLOUDY    19  11  70 S9        30.05S WCI   8
CHARLES CITY * CLOUDY    19  10  68 S8        29.99R WCI   9
CLINTON *      FAIR      13   8  81 SE10      30.10F WCI   0
DECORAH *      CLOUDY    19   9  63 S8G16     29.98S WCI   9
DUBUQUE        FAIR      16   8  71 S10       30.02F WCI   4
MONTICELLO *   FAIR      18  10  73 S12       30.06F WCI   5
OELWEIN *      CLOUDY    19  14  79 S13G20    30.00F WCI   7
WATERLOO       CLOUDY    20  12  71 S8        30.00F WCI  10
$$

IAZ064-065-067-068-078-171200-
   EAST CENTRAL IOWA

CITY           SKY/WX    TMP DP  RH WIND       PRES   REMARKS
DAVENPORT      FAIR      19   9  65 S10       30.11F WCI   7
IOWA CITY      CLOUDY    18  10  71 SE5       30.09F WCI  11
MT. PLEASANT * CLOUDY    23  18  80 S9        30.10S WCI  13
MUSCATINE *    FAIR      14  10  85 CALM      30.11F
QUAD CITIES    FAIR      20  12  71 S8        30.08F WCI  10
$$

IAZ062-063-075>077-085>089-095>099-171200-
   SOUTHEAST IOWA

CITY           SKY/WX    TMP DP  RH WIND       PRES   REMARKS
BURLINGTON     CLOUDY    23  15  71 S6        30.11S WCI  16
FAIRFIELD *    CLOUDY    23  14  68 S12       30.06S WCI  12
FORT MADISON * CLOUDY    25  18  74 S8        30.11R WCI  16
KEOKUK *       CLOUDY    27  16  63 SE7       30.11R WCI  19
OSKALOOSA *    CLOUDY    22  15  75 S7        30.06R WCI  13
OTTUMWA        CLOUDY    24  12  60 S12       30.04F WCI  13
WASHINGTON *   CLOUDY    19  18  93 S10       30.09F WCI   8
$$

ABBREVIATIONS USED IN REMARKS
   TC - TEMPERATURES IN CELSIUS
  WCI - WIND CHILL INDEX
   HX - HEAT INDEX
  VSB - VISIBILITY
$$





USA.gov is the U.S. government's official web portal to all federal, state and local government web resources and services.